Flag for Germany Weather past 2 weeks in Emsdetten, North Rhine-Westphalia, Germany

Now
63 °F

Partly sunny.


Feels Like: 63 °F
Forecast: 49 / 62 °F
Wind: 9 mph from Southwest

Location: Muenster / Osnabrueck

Current Time: Aug 22, 2014 at 12:24:21 PM

Latest Report: Aug 22, 2014 at 11:50 AM


Visibility: N/A

Pressure: 29.86 "Hg

Humidity: 59%

Dew point: 48 °F

Location of EmsdettenLocation

Historic Weather in Emsdetten — Graph

°F

Emsdetten temperature yesterday

Maximum temperature yesterday: 64 °F (at 2:50 PM)
Minimum temperature yesterday: 43 °F (at 5:50 AM)
Average temperature yesterday: 55 °F

Past Weeks' High & Low Weather Summary

 TemperatureHumidityPressure
High79 °F (Aug 8, 2:50 PM)100% (Aug 8, 12:50 AM)30.04 "Hg (Aug 8, 12:50 AM)
Low43 °F (Aug 21, 5:50 AM)43% (Aug 11, 3:20 PM)29.53 "Hg (Aug 10, 8:20 PM)
Average61 °F78%29.84 "Hg
* Reported Aug 7 11:20 AM — Aug 22 11:20 AM, Emsdetten, Weather by CustomWeather, © 2014

Note: Actual official high and low records may vary slightly from our data, if they occured in-between our weather recording intervals... More about our weather records

Advertising

Emsdetten weather history for previous 24 hours

 ConditionsComfort  
Time TempWeatherWind HumidityBarometerVisibility
11:20 AM
Aug 22
61 °FSunny.9 mph68%29.86 "Hg10 mi
10:50 AM57 °FSunny.8 mph72%29.86 "Hg10 mi
10:20 AM57 °FSunny.8 mph72%29.86 "Hg10 mi
9:50 AM57 °FLight rain. Clear.7 mph72%29.89 "HgN/A
9:20 AM57 °FSunny.10 mph72%29.89 "Hg10 mi
8:50 AM57 °FSunny.9 mph72%29.89 "Hg10 mi
8:20 AM55 °FSunny.7 mph77%29.89 "Hg10 mi
7:50 AM54 °FPartly sunny.7 mph82%29.89 "HgN/A
7:20 AM52 °FClear.6 mph88%29.89 "Hg10 mi
6:50 AM52 °FClear.7 mph88%29.89 "Hg10 mi
6:20 AM52 °FClear.7 mph88%29.89 "Hg10 mi
5:50 AM52 °FClear.7 mph88%29.89 "Hg10 mi
5:20 AM52 °FClear.7 mph88%29.89 "Hg10 mi
4:20 AM52 °FClear.7 mph88%29.92 "Hg10 mi
3:50 AM54 °FClear.7 mph82%29.92 "Hg10 mi
3:20 AM54 °FClear.6 mph82%29.92 "Hg10 mi
2:50 AM54 °FClear.6 mph82%29.92 "Hg10 mi
2:20 AM55 °FClear.7 mph77%29.92 "Hg10 mi
1:50 AM55 °FClear.7 mph77%29.92 "Hg10 mi
1:20 AM55 °FClear.7 mph77%29.92 "Hg10 mi
12:50 AM57 °FClear.7 mph72%29.92 "Hg10 mi
12:20 AM57 °FPartly cloudy.6 mph72%29.95 "HgN/A
11:50 PM
Aug 21
57 °FPartly cloudy.7 mph72%29.95 "HgN/A
11:20 PM57 °FClear.6 mph72%29.95 "Hg10 mi
10:50 PM57 °FClear.5 mph72%29.95 "Hg10 mi
10:20 PM55 °FClear.5 mph82%29.95 "Hg10 mi
9:50 PM55 °FClear.6 mph77%29.95 "Hg10 mi
9:20 PM55 °FSunny.5 mph77%29.95 "Hg10 mi
8:50 PM55 °FPartly sunny.3 mph82%29.95 "HgN/A
8:20 PM57 °FSunny.2 mph77%29.95 "Hg10 mi
7:50 PM61 °FSunny.5 mph59%29.95 "Hg10 mi
7:20 PM61 °FSunny.3 mph59%29.95 "Hg10 mi
6:50 PM61 °FPartly sunny.6 mph55%29.95 "HgN/A
6:20 PM63 °FPartly sunny.8 mph52%29.98 "HgN/A
5:50 PM63 °FScattered showers. Broken clouds.12 mph52%29.98 "HgN/A
5:20 PM64 °FScattered showers. Scattered clouds.10 mph46%29.98 "HgN/A
4:50 PM64 °FPassing clouds.9 mph46%29.98 "HgN/A
4:20 PM64 °FPassing clouds.12 mph46%29.98 "HgN/A
3:50 PM64 °FScattered clouds.9 mph49%29.98 "HgN/A
3:20 PM64 °FScattered clouds.9 mph46%29.98 "HgN/A
2:50 PM64 °FScattered clouds.9 mph52%30.01 "HgN/A
2:20 PM63 °FScattered clouds.10 mph59%30.01 "HgN/A
1:50 PM61 °FScattered clouds.12 mph59%30.01 "HgN/A
1:20 PM63 °FScattered clouds.9 mph56%30.01 "HgN/A
12:50 PM61 °FScattered clouds.9 mph63%30.01 "HgN/A
12:20 PM59 °FPassing clouds.7 mph72%30.01 "HgN/A
Weather by CustomWeather, © 2014

See weather overviewHow to use our weather pages